Flag for Gaza Strip Weather past 2 weeks in Khan Yunis, Gaza Strip

Now
59 °F

Clear.


Feels Like: 59 °F
Forecast: 52 / 65 °F
Wind: No wind

Location: El Arish

Current Time: Jan 28, 2015 at 6:52:29 PM

Latest Report: Jan 28, 2015 at 6:00 PM


Visibility: 10 mi

Pressure: 29.98 "Hg

Humidity: 82%

Dew point: 54 °F

Location of Khan YunisLocation

Historic Weather in Khan Yunis — Graph

°F

Khan Yunis temperature yesterday

Maximum temperature yesterday: 70 °F (at 12:00 PM)
Minimum temperature yesterday: 54 °F (at 12:00 AM)
Average temperature yesterday: 61 °F

Past Weeks' High & Low Weather Summary

 TemperatureHumidityPressure
High77 °F (Jan 21, 2:00 PM)100% (Jan 13, 11:00 PM)30.33 "Hg (Jan 13, 11:00 PM)
Low41 °F (Jan 18, 6:00 AM)21% (Jan 22, 1:00 PM)29.86 "Hg (Jan 28, 12:00 AM)
Average56 °F82%30.09 "Hg
* Reported Jan 13 5:00 PM — Jan 28 5:00 PM, Khan Yunis, Weather by CustomWeather, © 2014

Note: Actual official high and low records may vary slightly from our data, if they occured in-between our weather recording intervals... More about our weather records

Advertising

Khan Yunis weather history for previous 24 hours

 ConditionsComfort  
Time TempWeatherWind HumidityBarometerVisibility
5:00 PM
Jan 28
63 °FSunny.3 mph73%29.95 "Hg10 mi
4:00 PM64 °FSunny.7 mph68%29.95 "Hg10 mi
3:00 PM64 °FSunny.8 mph68%29.95 "Hg10 mi
2:00 PM66 °FPassing clouds.10 mph60%29.95 "HgN/A
1:00 PM66 °FScattered clouds.8 mph64%29.95 "HgN/A
12:00 PM66 °FScattered clouds.10 mph64%29.95 "HgN/A
7:00 AM55 °FClear.2 mph94%29.92 "Hg5 mi
6:00 AM54 °FClear.No wind100%29.89 "Hg4 mi
5:00 AM54 °FClear.No wind100%29.89 "Hg4 mi
4:00 AM52 °FClear.No wind100%29.86 "Hg4 mi
3:00 AM54 °FClear.No wind100%29.86 "Hg4 mi
2:00 AM54 °FClear.No wind94%29.86 "Hg10 mi
1:00 AM55 °FClear.No wind94%29.86 "Hg10 mi
12:00 AM57 °FPartly cloudy.No wind94%29.86 "HgN/A
11:00 PM
Jan 27
57 °FPartly cloudy.No wind94%29.89 "HgN/A
10:00 PM57 °FPartly cloudy.No wind94%29.89 "HgN/A
9:00 PM59 °FPartly cloudy.No wind94%29.92 "HgN/A
8:00 PM59 °FPartly cloudy.No wind88%29.92 "HgN/A
7:00 PM61 °FPartly cloudy.No wind88%29.92 "HgN/A
6:00 PM63 °FPartly cloudy.No wind83%29.92 "HgN/A
Weather by CustomWeather, © 2014

See weather overviewHow to use our weather pages